Location: Rounton
(54.4000°N, 1.3500°W)
Time: 21:48:13
(UTC+01:00)

YAOGAN 20A - Pass Details

Date: 04 July 2022
Orbit: 891 x 1288 km, 63.4° (Epoch: 18 August)

Event Time Altitude Azimuth Distance (km) Brightness Sun altitude
Rises 01:59:15 0° 311° (NW) 3,864 8.5 -12.0°
Reaches altitude 10° 02:02:00 10° 303° (WNW) 2,965 7.7 -11.9°
Maximum altitude 02:08:21 37° 240° (WSW) 1,749 5.9 -11.7°
Enters shadow 02:14:27 13° 180° (S) 2,959 6.8 -11.5°
